EW8718 Weather Reports


Display with metric or nautical units.
time (UTC)temp
F
wind
direction
speed
MPH
gust
MPH
rain 1hr
in
rain 24hr
in
rain mn
in
humidity
%
barometer
mb
20260503200009 80 101 2.0 0.0 0.00 0.00 0.00 40 1010.1
20260503194541 79 117 2.0 0.0 0.00 0.00 0.00 41 1010.6
20260503193038 78 170 4.0 0.0 0.00 0.00 0.00 42 1010.9
20260503191507 78 113 2.0 0.0 0.00 0.00 0.00 42 1011.2
20260503190007 77 100 2.0 0.0 0.00 0.00 0.00 43 1011.8
20260503184503 76 53 2.0 0.0 0.00 0.00 0.00 44 1012.2
20260503183001 75 124 1.0 0.0 0.00 0.00 0.00 45 1012.6
20260503181605 74 124 2.0 0.0 0.00 0.00 0.00 47 1013.0
20260503180112 73 122 2.0 0.0 0.00 0.00 0.00 47 1013.4
20260503174554 72 111 1.0 0.0 0.00 0.00 0.00 48 1014.0
20260503173058 73 97 1.0 0.0 0.00 0.00 0.00 47 1014.3
20260503171550 71 87 1.0 0.0 0.00 0.00 0.00 50 1014.6
20260503081559 62 92 0.0 0.0 0.00 0.00 0.00 60 1012.3
20260503071600 63 105 2.0 0.0 0.00 0.00 0.00 59 1012.6
20260503054538 64 104 4.0 0.0 0.00 0.00 0.00 57 1012.5
20260503053039 65 86 5.0 0.0 0.00 0.00 0.00 56 1012.2
20260503051531 65 105 4.0 0.0 0.00 0.00 0.00 56 1011.8
20260503050101 65 90 0.0 0.0 0.00 0.00 0.00 55 1011.5
20260503044606 65 121 5.0 0.0 0.00 0.00 0.00 55 1011.3
20260503043056 66 101 3.0 0.0 0.00 0.00 0.00 53 1011.0
20260503041546 67 82 5.0 0.0 0.00 0.00 0.00 52 1010.5
20260503040041 68 76 7.0 0.0 0.00 0.00 0.00 51 1009.8
20260503034538 68 90 6.0 0.0 0.00 0.00 0.00 50 1009.5
20260503033005 69 30 5.0 0.0 0.00 0.00 0.00 49 1009.4
20260503031606 70 84 5.0 0.0 0.00 0.00 0.00 48 1009.1
20260503030056 70 77 6.0 0.0 0.00 0.00 0.00 47 1008.8
20260503024554 71 79 4.0 0.0 0.00 0.00 0.00 47 1008.5
20260503023058 72 80 5.0 0.0 0.00 0.00 0.00 46 1008.2
20260503021549 73 82 4.0 0.0 0.00 0.00 0.00 44 1007.7
20260503020039 73 73 7.0 0.0 0.00 0.00 0.00 44 1007.4
20260503014535 74 80 6.0 0.0 0.00 0.00 0.00 43 1007.2
20260503013031 75 95 4.0 0.0 0.00 0.00 0.00 42 1007.1
20260503011629 76 55 7.0 0.0 0.00 0.00 0.00 41 1006.8
20260503010056 77 74 5.0 0.0 0.00 0.00 0.00 40 1006.6
20260503004550 78 82 5.0 0.0 0.00 0.00 0.00 39 1006.5
20260503003058 79 31 5.0 0.0 0.00 0.00 0.00 37 1006.4
20260503001543 79 78 5.0 0.0 0.00 0.00 0.00 37 1006.2
20260503000059 80 81 4.0 0.0 0.00 0.00 0.00 37 1005.9
20260502234545 80 64 4.0 0.0 0.00 0.00 0.00 36 1005.8
20260502233038 80 81 5.0 0.0 0.00 0.00 0.00 37 1006.1
20260502231542 80 104 4.0 0.0 0.00 0.00 0.00 38 1006.2
20260502230033 80 53 5.0 0.0 0.00 0.00 0.00 37 1006.3
20260502224533 79 114 5.0 0.0 0.00 0.00 0.00 38 1006.4
20260502223028 81 82 5.0 0.0 0.00 0.00 0.00 37 1006.5
20260502221525 81 68 5.0 0.0 0.00 0.00 0.00 37 1006.7
20260502220022 79 29 4.0 0.0 0.00 0.00 0.00 39 1006.8
20260502214520 79 25 6.0 0.0 0.00 0.00 0.00 38 1007.0
20260502213121 79 47 3.0 0.0 0.00 0.00 0.00 40 1007.1
20260502211554 80 106 4.0 0.0 0.00 0.00 0.00 39 1007.2
20260502210056 80 83 4.0 0.0 0.00 0.00 0.00 40 1007.3
20260502204546 79 105 5.0 0.0 0.00 0.00 0.00 39 1007.5
20260502203047 80 338 2.0 0.0 0.00 0.00 0.00 39 1007.4
20260502201544 78 37 4.0 0.0 0.00 0.00 0.00 41 1007.7